AirNav   Textron
 
 740 users online  

ME11 Cooper Seaplane Base
Hartford, Maine, USA

GOING TO HARTFORD?


FAA INFORMATION EFFECTIVE 09 NOVEMBER 2017

Location

FAA Identifier: ME11
Lat/Long: 44-20-32.2440N / 070-17-16.2080W
44-20.537400N / 070-17.270133W
44.3422900 / -70.2878356
(estimated)
Elevation: 373 ft. / 114 m (estimated)
Variation: 17W (1985)
From city: 3 miles E of HARTFORD, ME
Time zone: UTC -5 (UTC -4 during Daylight Saving Time)
Zip code: 04221

Seaplane Base Operations

Seaplane Base use: Private use. Permission required prior to landing
Activation date: 05/1989
Control tower: no
ARTCC: BOSTON CENTER
FSS: BANGOR FLIGHT SERVICE STATION
Attendance: UNATNDD
Wind indicator: yes
Segmented circle: no

Seaplane Base Communications

WX AWOS-3PT at LEW (18 nm S): 118.025 (207-783-2806)

Nearby radio navigation aids

VOR radial/distance  VOR name  Freq  Var
AUGr292/21.1AUGUSTA VOR/DME111.4018W

Seaplane Base Services

Runway Information

Runway 16W/34W

Dimensions: 4000 x 500 ft. / 1219 x 152 m
Surface: water
RUNWAY 16W  RUNWAY 34W
Traffic pattern: leftleft

Runway 5W/23W

Dimensions: 3000 x 500 ft. / 914 x 152 m
Surface: water
RUNWAY 5W  RUNWAY 23W
Traffic pattern: leftleft
Obstructions: 40 ft. trees, 800 ft. from runway, 20:1 slope to clear40 ft. trees, 800 ft. from runway, 20:1 slope to clear

Seaplane Base Ownership and Management from official FAA records

Ownership: Privately-owned
Owner: MICHAEL D. COOPER
PO BOX 552
N. TURNER, ME 04266
Phone 207-224-7950
Manager: MICHAEL D. COOPER
PO BOX 552
N. TURNER, ME 04266
Phone 207-224-7950

Seaplane Base Operational Statistics

Aircraft based on the field: 1
Single engine airplanes: 1
    

Instrument Procedures

There are no published instrument procedures at ME11.

Some nearby airports with instrument procedures:

81B - Oxford County Regional Airport (14 nm SW)
KLEW - Auburn/Lewiston Municipal Airport (18 nm S)
KAUG - Augusta State Airport (21 nm E)
KWVL - Waterville Robert LaFleur Airport (29 nm NE)
KOWK - Central Maine Airport of Norridgewock (29 nm NE)
 
Loc | Ops | Rwys | IFR | FBO | Links
Com | Nav | Svcs | Stats | Notes

Auburn-Lewiston Municipal Airport
 
Area around ME11 (Cooper Seaplane Base)
 
Road maps at: MapQuest Bing Google
 
Aerial photo
No photo
 
Sectional chart

 
Airport distance calculator
Flying to Cooper Seaplane Base? Find the distance to fly.

From to ME11

Sunrise and sunset
Times for 20-Nov-2017
 Local
(UTC-5)
 Zulu
(UTC)
Morning civil twilight06:1311:13
Sunrise06:4511:45
Sunset16:0921:09
Evening civil twilight16:4121:41

Current date and time
Zulu (UTC)  21-Nov-2017 04:04:01
Local (UTC-5)  20-Nov-2017 23:04:01
 
METAR
KLEW 
19nm S 
210356Z AUTO 01005KT 10SM CLR M05/M11 A2999 RMK AO2 SLP174 T10501106 400171050 FZRANO
KAUG 
21nm E 
210353Z AUTO 32006KT 10SM CLR M06/M12 A3000 RMK AO2 SLP164 T10561122
KWVL 
29nm E 
210356Z AUTO 00000KT 10SM CLR M07/M12 A2996 RMK AO2 SLP179 T10671117 FZRANO
KIWI 
33nm SE 
210353Z AUTO 00000KT 10SM CLR M03/M11 A3003 RMK AO2 SLP169 T10331111
KIZG 
36nm SW 
210354Z AUTO 24004KT 10SM SCT050 M02/M08 A2997 RMK AO2 SLP155 T10171083
TAF
KAUG 
21nm E 
202200Z 2022/2118 31010G14KT P6SM BKN070 FM202300 30008KT P6SM FEW100 FM210400 VRB04KT P6SM SKC FM211400 21008KT P6SM SKC
NOTAMs
Click for the latest NOTAMs
NOTAMs are issued by the DoD/FAA and will open in a separate window not controlled by AirNav.

 

 
 

Would you like to see your business listed on this page?

 If your business provides an interesting product or service to pilots, flight crews, aircraft, or users of the Cooper Seaplane Base, you should consider listing it here.  To start the listing process, click on the button below
 
Add a business
 

Other Pages about Cooper Seaplane Base

Update a link
 
Copyright © AirNav, LLC. All rights reserved. Privacy Policy  Contact